Snowfall_Accumulation
nan nan nan nan nan nan nan nan nan nan nan nan nan nan nan nan nan 0.0 0.0 0.0 0.0 nan nan 0.0 0.0 0.0 0.0 0.0 0.0 0.0 0.0 0.0 0.0 0.0 0.0 0.0 0.0 0.0 0.0 0.0 0.0 0.0 0.0 0.0 0.0
nan nan nan nan nan nan nan nan nan nan nan nan nan nan nan nan 0.0 0.0 nan nan nan nan 0.0 0.0 0.0 0.0 0.0 0.0 0.0 0.0 0.0 0.0 0.0 0.0 0.0 0.0 0.0 0.0 0.0 0.0 0.0 0.0 0.0 0.0 0.0
nan nan nan nan nan nan nan nan nan nan nan nan nan nan nan 0.0 0.0 0.0 nan nan nan 0.0 0.0 0.0 0.0 0.0 0.0 0.0 0.0 0.0 0.0 0.0 0.0 0.0 0.0 0.0 0.0 0.0 0.0 0.0 0.0 0.0 0.0 0.0 0.0
nan nan nan nan nan nan nan nan nan nan nan nan nan nan nan 0.0 0.0 0.0 nan nan nan 0.0 0.0 0.0 0.0 0.0 0.0 0.0 0.0 0.0 0.0 0.0 0.0 0.0 0.0 0.0 0.0 0.0 0.0 0.0 0.0 0.0 0.0 0.0 0.0
nan nan nan nan nan nan nan nan nan nan nan nan nan nan 0.0 0.0 0.0 0.0 nan nan 0.0 0.0 0.0 0.0 0.0 0.0 0.0 0.0 0.0 0.0 0.0 0.0 0.0 0.0 0.0 0.0 0.0 0.0 0.0 0.0 0.0 0.0 0.0 0.0 0.0
nan nan nan nan nan nan nan nan nan nan nan nan nan nan 0.0 0.0 0.0 0.0 0.0 0.0 0.0 0.0 0.0 0.0 0.0 0.0 0.0 0.0 0.0 0.0 0.0 0.0 0.0 0.0 0.0 0.0 0.0 0.0 0.0 0.0 0.0 0.0 0.0 0.0 0.0
nan nan nan nan nan nan nan nan nan nan nan nan nan 0.0 0.0 0.0 0.0 0.0 0.0 0.0 0.0 0.0 0.0 0.0 0.0 0.0 0.0 0.0 0.0 0.0 0.0 0.0 0.0 0.0 0.0 0.0 0.0 0.0 0.0 0.0 0.0 0.0 0.0 0.0 0.0
nan nan nan nan nan nan nan nan nan nan nan nan nan 0.0 0.0 0.0 0.0 0.0 0.0 0.0 0.0 0.0 0.0 0.0 0.0 0.0 0.0 0.0 0.0 0.0 0.0 0.1 0.0 0.0 0.0 0.0 0.0 0.0 0.0 0.0 0.0 0.0 0.0 0.0 0.0
nan nan nan nan nan nan nan nan nan nan nan nan 0.0 0.0 0.0 nan 0.0 0.0 0.0 0.0 0.0 0.0 0.0 0.0 0.0 0.0 0.0 0.1 0.7 0.0 0.1 0.0 0.0 0.0 0.0 0.0 0.0 0.0 0.0 0.0 0.0 0.0 0.0 0.0 0.0
nan nan nan nan nan nan nan nan nan nan 0.0 0.0 0.0 0.0 0.0 0.0 0.0 0.0 0.0 0.0 0.0 0.0 0.0 0.0 0.0 0.0 0.0 0.6 4.0 0.4 0.2 0.0 0.0 0.0 0.0 0.0 0.0 0.0 0.0 0.0 0.0 0.0 0.0 0.0 0.0
nan nan nan nan nan nan 0.0 0.0 0.0 0.0 0.0 0.0 0.0 0.0 0.0 0.0 0.0 0.0 0.0 0.0 0.0 0.0 0.0 0.0 0.2 0.4 1.7 0.1 1.4 1.2 1.7 1.3 0.1 0.0 0.0 0.0 0.0 0.0 0.0 0.0 0.0 0.0 0.0 0.0 0.0
nan nan nan nan nan nan 0.0 0.0 0.0 0.0 0.0 0.0 0.0 0.0 0.0 0.0 0.0 0.0 0.0 0.0 0.0 0.0 0.0 0.5 0.7 0.1 0.0 0.0 0.2 0.7 0.9 0.4 0.0 0.0 0.0 0.0 0.0 0.0 0.0 0.0 0.0 0.0 0.0 0.0 0.0
nan nan nan nan nan 0.0 0.0 0.0 0.0 0.0 0.0 0.0 0.0 0.0 0.0 0.0 0.0 0.0 0.0 0.0 0.0 0.0 0.0 0.7 0.0 0.0 0.1 0.0 0.4 0.7 1.6 0.3 0.4 0.1 0.0 0.0 0.0 0.0 0.0 0.0 0.0 0.0 0.0 0.0 0.0
nan nan nan nan nan 0.0 0.0 0.0 0.0 0.0 0.5 0.0 0.0 0.0 0.0 0.0 0.0 0.0 0.0 0.0 0.0 0.0 0.0 0.1 0.0 0.0 0.2 0.2 0.3 0.6 0.0 0.5 0.8 2.5 1.8 0.0 0.7 0.0 0.0 0.0 0.0 0.0 0.0 0.0 0.0
nan nan nan nan 0.0 0.0 0.0 0.0 0.0 0.0 6.8 0.0 0.0 0.0 0.0 0.0 0.0 0.0 0.0 0.0 0.1 0.0 0.0 0.3 0.0 0.0 0.4 0.3 0.4 0.6 0.0 0.2 0.9 2.7 1.5 0.2 0.6 0.0 0.0 0.0 0.0 0.0 0.0 0.0 0.0
nan nan nan 0.0 0.0 0.0 0.0 0.0 0.0 2.6 11.0 0.0 0.0 0.0 0.0 0.0 0.0 0.0 0.0 0.0 0.0 0.0 0.0 0.1 0.1 0.2 1.2 0.0 0.3 0.1 0.0 0.1 0.7 3.5 13.0 0.1 0.4 0.2 0.0 0.0 0.0 0.0 0.0 0.0 0.0
nan nan nan 0.0 0.0 0.0 0.0 0.0 3.3 4.5 0.0 0.0 0.1 0.0 0.0 0.0 0.0 0.0 0.2 1.1 2.9 5.4 0.4 0.1 0.6 0.2 0.2 0.3 0.1 1.9 2.3 16.1 27.4 27.4 8.3 0.5 0.5 0.9 0.8 1.0 0.1 0.0 0.0 0.0 0.1
nan nan nan 0.0 0.0 0.0 0.0 0.0 1.1 0.1 0.0 0.0 0.0 0.0 0.1 0.0 0.0 0.2 0.8 3.8 0.3 1.8 3.4 3.4 7.0 7.3 3.6 2.9 3.5 3.4 9.3 6.1 6.7 9.6 2.1 0.1 5.4 2.8 0.5 0.3 0.2 0.1 0.1 0.1 0.2
nan 0.0 0.0 0.0 0.0 0.0 0.0 1.3 2.0 0.3 0.0 0.0 0.0 0.0 0.0 0.0 0.1 0.3 1.7 3.1 1.5 1.1 9.0 4.7 4.3 0.4 1.2 1.7 1.2 4.1 16.2 8.7 2.9 2.2 2.1 9.8 11.7 1.8 0.5 0.8 0.5 0.3 0.1 0.2 0.2
0.0 0.0 0.0 0.0 0.0 0.0 0.0 nan 0.8 0.0 0.0 0.0 0.0 0.0 0.1 0.0 0.0 0.3 1.4 0.4 0.8 0.3 0.1 5.6 4.9 3.7 0.4 1.5 2.0 3.5 6.7 12.6 13.2 9.2 13.9 15.2 6.1 5.1 2.9 1.5 1.5 1.0 0.6 0.4 0.2
0.0 0.0 0.0 0.0 0.0 0.0 0.8 0.4 0.0 0.0 0.0 0.0 0.0 0.0 0.1 0.1 0.1 0.7 4.2 1.5 0.0 0.0 0.0 1.2 6.7 4.6 0.4 6.6 9.7 6.2 12.3 14.0 11.4 6.3 8.2 11.4 18.9 10.2 4.1 2.0 1.9 1.9 1.3 0.8 0.5
0.0 0.0 0.0 0.0 0.0 0.0 0.1 0.1 nan 0.0 0.0 0.0 0.0 0.0 0.0 0.1 0.1 0.2 0.5 0.2 0.0 0.0 0.2 0.2 4.7 5.7 7.9 5.3 3.7 7.6 11.6 10.7 16.8 15.7 11.8 9.0 11.2 6.7 3.0 2.5 1.6 2.3 1.9 1.6 1.0
0.0 0.0 0.0 0.0 0.2 0.1 0.0 0.0 0.0 0.0 0.0 0.0 0.0 0.0 0.0 0.2 0.6 0.0 0.0 0.0 0.0 0.0 1.8 0.1 2.1 5.6 7.9 5.5 0.6 4.7 7.0 7.5 8.1 11.8 22.2 15.7 14.6 4.8 2.9 2.6 3.0 2.5 2.4 2.1 1.6
0.0 0.1 0.0 0.0 0.0 0.2 0.2 0.0 0.0 0.0 0.0 0.0 0.1 0.0 0.1 0.0 0.0 0.7 0.0 0.0 0.0 0.0 nan nan 0.3 0.8 3.5 5.6 2.5 4.5 2.8 4.2 9.2 11.8 17.7 16.6 10.8 4.7 4.0 3.4 2.1 2.0 2.0 2.2 2.2
0.0 0.2 0.1 0.2 0.0 0.1 0.4 0.2 0.1 0.1 0.0 0.0 0.0 0.0 1.2 1.8 0.1 0.0 0.0 0.0 0.0 nan 0.0 0.0 4.6 0.2 2.1 0.7 0.2 1.3 2.2 3.0 10.4 12.4 10.2 12.4 6.7 8.0 6.1 4.5 3.0 2.2 1.2 1.0 1.3
0.0 0.3 0.2 0.0 0.0 0.0 0.6 0.3 0.3 0.0 0.3 0.3 0.3 0.0 0.1 2.0 2.5 4.0 1.7 0.0 0.3 0.0 0.0 0.1 3.7 0.6 1.1 0.0 0.0 0.3 0.4 0.6 1.7 6.9 6.9 4.8 6.0 6.0 2.9 2.9 4.4 2.8 1.2 1.2 1.0
0.0 0.0 0.5 nan 0.2 1.4 1.0 0.1 0.0 0.0 0.0 0.1 0.1 0.2 0.0 0.4 0.2 0.1 0.1 0.4 0.7 0.2 0.0 0.4 1.6 1.1 2.1 0.0 0.0 1.6 2.2 1.1 3.5 3.2 4.0 5.3 8.0 2.2 3.1 3.5 3.2 3.9 3.1 1.7 1.1
Water_Equivalent
nan nan nan nan nan nan nan nan nan nan nan nan nan nan nan nan nan 0.00 0.00 0.00 0.00 nan nan 0.00 0.00 0.00 0.00 0.00 0.00 0.00 0.00 0.00 0.00 0.00 0.00 0.00 0.00 0.00 0.00 0.00 0.00 0.00 0.00 0.00 0.00
nan nan nan nan nan nan nan nan nan nan nan nan nan nan nan nan 0.00 0.00 nan nan nan nan 0.00 0.00 0.00 0.00 0.00 0.00 0.00 0.00 0.00 0.00 0.00 0.00 0.00 0.00 0.00 0.00 0.00 0.00 0.00 0.00 0.00 0.00 0.00
nan nan nan nan nan nan nan nan nan nan nan nan nan nan nan 0.00 0.00 0.00 nan nan nan 0.00 0.00 0.00 0.00 0.00 0.00 0.00 0.00 0.00 0.00 0.00 0.00 0.00 0.00 0.00 0.00 0.00 0.00 0.00 0.00 0.00 0.00 0.00 0.00
nan nan nan nan nan nan nan nan nan nan nan nan nan nan nan 0.00 0.00 0.00 nan nan nan 0.00 0.00 0.00 0.00 0.00 0.00 0.00 0.00 0.00 0.00 0.00 0.00 0.00 0.00 0.00 0.00 0.00 0.00 0.00 0.00 0.00 0.00 0.00 0.00
nan nan nan nan nan nan nan nan nan nan nan nan nan nan 0.00 0.00 0.00 0.00 nan nan 0.00 0.00 0.00 0.00 0.00 0.00 0.00 0.00 0.00 0.00 0.00 0.00 0.00 0.00 0.00 0.00 0.00 0.00 0.00 0.00 0.00 0.00 0.00 0.00 0.00
nan nan nan nan nan nan nan nan nan nan nan nan nan nan 0.00 0.00 0.00 0.00 0.00 0.00 0.00 0.00 0.00 0.00 0.00 0.00 0.00 0.00 0.00 0.00 0.00 0.00 0.00 0.00 0.00 0.00 0.00 0.00 0.00 0.00 0.00 0.00 0.00 0.00 0.00
nan nan nan nan nan nan nan nan nan nan nan nan nan 0.00 0.00 0.00 0.00 0.00 0.00 0.00 0.00 0.00 0.00 0.00 0.00 0.00 0.00 0.00 0.00 0.00 0.00 0.00 0.00 0.00 0.00 0.00 0.00 0.00 0.00 0.00 0.00 0.00 0.00 0.00 0.00
nan nan nan nan nan nan nan nan nan nan nan nan nan 0.00 0.00 0.00 0.00 0.00 0.00 0.00 0.00 0.00 0.00 0.00 0.00 0.00 0.00 0.00 0.00 0.00 0.00 0.01 0.00 0.00 0.00 0.00 0.00 0.00 0.00 0.00 0.00 0.00 0.00 0.00 0.00
nan nan nan nan nan nan nan nan nan nan nan nan 0.00 0.00 0.00 nan 0.00 0.00 0.00 0.00 0.00 0.00 0.00 0.00 0.00 0.00 0.00 0.02 0.13 0.01 0.01 0.00 0.00 0.00 0.00 0.00 0.00 0.00 0.00 0.00 0.00 0.00 0.00 0.00 0.00
nan nan nan nan nan nan nan nan nan nan 0.00 0.00 0.00 0.00 0.00 0.00 0.00 0.00 0.00 0.00 0.00 0.00 0.00 0.00 0.00 0.00 0.00 0.14 0.57 0.07 0.03 0.00 0.00 0.00 0.00 0.00 0.00 0.00 0.00 0.00 0.00 0.00 0.00 0.00 0.00
nan nan nan nan nan nan 0.00 0.00 0.00 0.00 0.00 0.00 0.00 0.00 0.00 0.00 0.00 0.00 0.00 0.00 0.00 0.00 0.00 0.00 0.04 0.07 0.19 0.02 0.23 0.19 0.23 0.18 0.02 0.00 0.00 0.00 0.00 0.00 0.00 0.00 0.00 0.00 0.00 0.00 0.00
nan nan nan nan nan nan 0.00 0.00 0.00 0.00 0.00 0.00 0.00 0.00 0.00 0.00 0.00 0.00 0.00 0.00 0.00 0.00 0.00 0.08 0.12 0.01 0.00 0.00 0.04 0.12 0.14 0.06 0.00 0.00 0.00 0.00 0.00 0.00 0.00 0.00 0.00 0.00 0.00 0.00 0.00
nan nan nan nan nan 0.00 0.00 0.00 0.00 0.00 0.01 0.00 0.00 0.00 0.00 0.00 0.00 0.00 0.00 0.00 0.00 0.00 0.00 0.10 0.00 0.00 0.01 0.00 0.06 0.13 0.26 0.05 0.06 0.01 0.00 0.00 0.00 0.00 0.00 0.00 0.00 0.00 0.00 0.00 0.00
nan nan nan nan nan 0.00 0.00 0.00 0.00 0.00 0.12 0.01 0.00 0.00 0.00 0.00 0.00 0.00 0.00 0.00 0.00 0.00 0.00 0.03 0.00 0.00 0.04 0.04 0.04 0.09 0.01 0.08 0.12 0.43 0.35 0.00 0.11 0.00 0.00 0.00 0.00 0.00 0.00 0.00 0.00
nan nan nan nan 0.00 0.00 0.00 0.00 0.00 0.00 1.48 0.00 0.00 0.00 0.00 0.00 0.00 0.01 0.00 0.00 0.01 0.00 0.00 0.04 0.00 0.00 0.05 0.05 0.06 0.12 0.00 0.04 0.16 0.44 0.22 0.02 0.14 0.00 0.00 0.00 0.00 0.00 0.00 0.00 0.00
nan nan nan 0.00 0.00 0.00 0.00 0.00 0.00 0.55 2.26 0.01 0.00 0.00 0.00 0.00 0.00 0.00 0.00 0.00 0.00 0.01 0.00 0.01 0.01 0.04 0.20 0.01 0.05 0.02 0.01 0.02 0.13 0.55 1.80 0.02 0.07 0.07 0.00 0.00 0.00 0.00 0.00 0.00 0.01
nan nan nan 0.00 0.00 0.00 0.00 0.00 0.70 0.99 0.00 0.00 0.04 0.00 0.00 0.00 0.00 0.00 0.03 0.15 0.36 0.73 0.08 0.01 0.09 0.04 0.04 0.05 0.02 0.25 0.38 2.78 3.88 3.55 1.01 0.20 0.13 0.07 0.08 0.11 0.01 0.00 0.00 0.01 0.02
nan nan nan 0.00 0.00 0.00 0.00 0.00 0.21 0.01 0.00 0.00 0.00 0.00 0.02 0.00 0.00 0.03 0.14 0.46 0.05 0.22 0.51 0.59 1.20 0.89 0.58 0.37 0.39 0.35 0.98 0.89 0.67 1.22 0.32 0.02 0.56 0.26 0.05 0.03 0.02 0.01 0.01 0.01 0.05
nan 0.00 0.00 0.00 0.00 0.00 0.00 0.40 0.22 0.05 0.00 0.00 0.00 0.01 0.00 0.00 0.04 0.05 0.19 0.37 0.18 0.14 0.95 0.40 0.51 0.07 0.20 0.26 0.17 0.50 1.89 0.76 0.31 0.26 0.28 0.84 0.87 0.18 0.05 0.08 0.05 0.03 0.02 0.02 0.03
0.00 0.00 0.00 0.00 0.00 0.00 0.00 nan 0.14 0.00 0.00 0.00 0.01 0.01 0.01 0.00 0.00 0.03 0.14 0.06 0.11 0.04 0.03 0.54 0.42 0.41 0.07 0.21 0.28 0.37 0.67 1.36 1.78 0.99 1.17 1.10 0.40 0.44 0.24 0.12 0.13 0.08 0.06 0.05 0.04
0.00 0.00 0.00 0.00 0.00 0.00 0.24 0.07 0.01 0.00 0.00 0.00 0.00 0.01 0.01 0.02 0.01 0.08 0.43 0.17 0.00 0.00 0.00 0.13 0.62 0.39 0.07 0.60 0.77 0.66 1.06 1.13 0.86 0.58 0.67 0.77 1.23 0.90 0.36 0.18 0.16 0.16 0.12 0.09 0.07
0.00 0.02 0.00 0.00 0.02 0.00 0.03 0.01 nan 0.00 0.00 0.00 0.00 0.00 0.01 0.01 0.01 0.03 0.05 0.03 0.00 0.00 0.02 0.03 0.42 0.62 0.58 0.57 0.42 0.73 0.91 0.78 1.30 1.18 0.81 0.66 0.87 0.62 0.28 0.24 0.15 0.21 0.19 0.16 0.12
0.00 0.00 0.00 0.00 0.06 0.02 0.00 0.00 0.00 0.00 0.00 0.00 0.00 0.00 0.00 0.03 0.05 0.00 0.00 0.00 0.00 0.00 0.15 0.01 0.23 0.48 0.61 0.54 0.08 0.40 0.62 0.62 0.66 0.95 1.31 1.32 1.12 0.42 0.26 0.23 0.28 0.22 0.22 0.21 0.17
0.00 0.04 0.00 0.00 0.00 0.04 0.04 0.00 0.00 0.00 0.00 0.00 0.01 0.00 0.02 0.00 0.00 0.08 0.01 0.00 0.00 0.00 nan nan 0.04 0.06 0.37 0.34 0.18 0.34 0.22 0.30 0.72 0.91 1.09 1.17 0.64 0.30 0.29 0.25 0.18 0.18 0.19 0.21 0.22
0.00 0.05 0.03 0.03 0.00 0.01 0.07 0.03 0.02 0.02 0.00 0.00 0.00 0.00 0.11 0.16 0.01 0.00 0.00 0.00 0.00 nan 0.00 0.01 0.39 0.02 0.16 0.06 0.02 0.08 0.14 0.18 0.79 0.78 0.70 0.69 0.37 0.48 0.41 0.31 0.24 0.19 0.11 0.09 0.12
0.00 0.07 0.04 0.01 0.00 0.01 0.08 0.05 0.05 0.01 0.05 0.05 0.05 0.00 0.01 0.17 0.22 0.34 0.14 0.00 0.03 0.00 0.00 0.02 0.34 0.05 0.09 0.00 0.00 0.03 0.02 0.04 0.11 0.41 0.40 0.27 0.31 0.42 0.22 0.23 0.32 0.22 0.10 0.10 0.09
0.00 0.01 0.12 nan 0.04 0.19 0.12 0.02 0.00 0.01 0.00 0.02 0.02 0.03 0.00 0.05 0.03 0.02 0.01 0.04 0.07 0.02 0.01 0.05 0.15 0.10 0.15 0.00 0.00 0.15 0.11 0.06 0.19 0.18 0.23 0.30 0.44 0.15 0.21 0.25 0.22 0.28 0.23 0.13 0.09
SL_Ratio
nan nan nan nan nan nan nan nan nan nan nan nan nan nan nan nan nan nan nan nan nan nan nan nan nan nan nan nan nan nan nan nan nan nan nan nan nan nan nan nan nan nan nan nan nan
nan nan nan nan nan nan nan nan nan nan nan nan nan nan nan nan nan nan nan nan nan nan nan nan nan nan nan nan nan nan nan nan nan nan nan nan nan nan nan nan nan nan nan nan nan
nan nan nan nan nan nan nan nan nan nan nan nan nan nan nan nan nan nan nan nan nan nan nan nan nan nan nan nan nan nan nan nan nan nan nan nan nan nan nan nan nan nan nan nan nan
nan nan nan nan nan nan nan nan nan nan nan nan nan nan nan nan nan nan nan nan nan nan nan nan nan nan nan nan nan nan nan nan nan nan nan nan nan nan nan nan nan nan nan nan nan
nan nan nan nan nan nan nan nan nan nan nan nan nan nan nan nan nan nan nan nan nan nan nan nan nan nan nan nan nan nan nan nan nan nan nan nan nan nan nan nan nan nan nan nan nan
nan nan nan nan nan nan nan nan nan nan nan nan nan nan nan nan nan nan nan nan nan nan nan nan nan nan nan nan nan nan nan nan nan nan nan nan nan nan nan nan nan nan nan nan nan
nan nan nan nan nan nan nan nan nan nan nan nan nan nan nan nan nan nan nan nan nan nan nan nan nan nan nan nan nan nan nan nan nan nan nan nan nan nan nan nan nan nan nan nan nan
nan nan nan nan nan nan nan nan nan nan nan nan nan nan nan nan nan nan nan nan nan nan nan nan nan nan nan nan nan nan nan 6.1 nan nan nan nan nan nan nan nan nan nan nan nan nan
nan nan nan nan nan nan nan nan nan nan nan nan nan nan nan nan nan nan nan nan nan nan nan nan nan nan nan 4.6 5.1 5.6 7.5 nan nan nan nan nan nan nan nan nan nan nan nan nan nan
nan nan nan nan nan nan nan nan nan nan nan nan nan nan nan nan nan nan nan nan nan nan nan nan nan nan nan 4.4 6.9 6.5 7.2 5.0 nan nan nan nan nan nan nan nan nan nan nan nan nan
nan nan nan nan nan nan nan nan nan nan nan nan nan nan nan nan nan nan nan nan nan nan nan nan 5.9 5.4 8.7 6.9 6.0 6.2 7.2 7.0 6.0 nan nan nan nan nan nan nan nan nan nan nan nan
nan nan nan nan nan nan nan nan nan nan nan nan nan nan nan nan nan nan nan nan nan 5.0 nan 6.2 6.1 6.1 nan nan 4.6 5.5 6.6 6.7 6.7 nan nan nan nan nan nan nan nan nan nan nan nan
nan nan nan nan nan nan nan nan nan nan 6.0 nan nan nan nan nan nan nan nan nan nan 5.0 5.0 6.6 6.0 nan 5.5 nan 6.7 5.0 6.0 6.0 6.1 6.0 nan nan nan nan nan nan nan nan nan nan nan
nan nan nan nan nan nan nan nan nan nan 4.3 6.7 nan nan nan nan nan nan nan nan nan 5.0 nan 5.5 nan 5.0 6.2 5.5 7.3 6.5 6.8 6.1 6.4 5.9 5.3 nan 6.1 nan nan nan nan nan nan nan nan
nan nan nan nan nan nan nan nan nan nan 4.6 nan nan nan nan 5.0 4.3 4.2 nan nan 5.0 nan nan 5.8 5.0 7.1 7.2 6.0 6.2 4.9 5.0 5.9 5.6 6.2 6.8 7.3 4.4 nan nan nan nan nan nan nan 3.0
nan nan nan nan nan nan nan nan nan 4.7 4.9 2.9 nan nan nan nan nan nan 5.0 4.0 nan 4.5 4.0 4.7 6.0 5.8 5.9 5.0 5.4 5.4 4.7 4.7 5.1 6.3 7.2 6.7 6.0 2.9 nan 10.0 nan nan nan 3.3 2.8
nan nan nan nan nan nan nan nan 4.7 4.6 nan nan 2.5 nan nan nan nan 5.0 5.2 7.0 8.0 7.4 5.5 4.5 6.9 5.7 5.1 6.1 5.2 7.5 6.2 5.8 7.1 7.7 8.2 2.7 3.9 12.7 10.2 9.4 9.2 9.0 10.0 4.5 3.7
nan nan nan nan nan nan nan nan 5.2 7.1 nan nan nan nan 3.4 nan 5.0 6.7 6.2 8.4 5.9 8.1 6.7 5.8 5.9 8.2 6.2 7.9 9.0 9.7 9.5 6.9 10.1 7.9 6.5 5.8 9.5 10.9 9.6 9.1 9.4 9.3 8.9 5.7 4.8
nan nan nan nan nan nan nan 3.2 9.0 6.7 nan nan nan 2.6 4.0 nan 3.6 6.8 8.7 8.4 8.0 7.9 9.5 12.0 8.5 5.8 6.1 6.4 7.1 8.3 8.6 11.4 9.3 8.3 7.6 11.7 13.4 10.1 9.0 10.0 10.1 10.3 9.2 8.4 5.7
nan nan nan nan nan nan 1.7 nan 5.9 nan nan nan 5.0 7.5 10.0 nan 8.8 8.8 9.6 6.7 7.6 6.3 5.6 10.4 11.6 8.9 6.1 6.8 7.0 9.3 10.0 9.2 7.4 9.3 11.9 13.9 15.1 11.6 11.9 12.1 11.3 11.6 9.7 7.6 6.7
nan nan nan nan nan nan 3.4 5.4 5.5 nan nan nan nan 8.1 8.7 8.5 9.4 8.8 9.7 8.8 nan nan 5.0 8.6 10.8 11.7 6.6 11.1 12.6 9.4 11.7 12.4 13.4 10.8 12.2 14.7 15.3 11.4 11.4 11.3 11.9 11.6 10.6 8.8 7.0
nan 2.5 nan nan 2.4 nan 3.1 4.3 nan nan nan nan nan nan 7.5 7.9 7.2 7.3 9.1 7.0 nan nan 10.9 7.9 11.2 9.2 13.6 9.3 8.9 10.3 12.7 13.7 12.9 13.4 14.6 13.5 12.8 10.9 10.6 10.6 10.6 10.8 10.2 9.8 8.3
nan nan nan nan 2.8 3.5 nan nan nan nan nan nan 3.3 nan nan 6.7 10.5 7.9 8.0 nan nan nan 12.1 8.5 9.3 11.6 13.1 10.2 7.6 11.9 11.2 12.2 12.3 12.4 16.9 11.9 13.0 11.2 10.9 11.3 10.6 11.0 10.5 10.0 9.5
nan 2.9 nan nan nan 5.0 5.4 5.0 5.0 nan nan 3.8 5.0 nan 5.2 7.5 nan 8.5 5.4 nan nan nan nan nan 8.7 12.9 9.4 16.8 14.4 13.5 12.7 13.7 12.8 12.9 16.2 14.2 17.0 15.9 14.1 13.4 11.7 11.3 10.5 10.3 10.1
nan 4.5 5.2 6.5 nan 4.3 6.0 5.6 5.1 6.4 5.0 nan 5.0 7.1 10.6 11.1 8.9 15.0 7.0 5.0 nan nan nan 6.3 12.0 8.8 13.2 12.1 12.3 15.3 16.2 16.8 13.2 16.0 14.6 18.0 18.0 16.7 14.9 14.3 12.8 11.6 10.9 10.9 10.9
5.0 4.7 4.6 4.4 nan 5.4 7.3 6.3 5.9 5.0 6.0 5.2 7.2 5.0 6.8 11.8 11.3 11.9 12.5 10.0 10.7 nan nan 7.6 11.0 10.7 12.6 11.0 11.7 10.7 15.9 15.6 16.5 16.9 17.5 18.0 18.9 14.2 12.8 12.5 13.8 13.1 12.0 12.0 11.3
3.8 3.3 4.5 nan 5.8 7.3 8.2 7.2 6.4 5.9 nan 5.2 5.8 6.0 7.9 7.8 7.0 6.7 8.2 9.8 10.7 9.3 8.3 7.2 10.3 10.9 14.6 16.3 12.5 10.7 18.8 18.3 18.2 17.3 17.3 17.9 18.3 14.5 15.0 14.5 14.5 13.9 13.1 13.0 12.0